Regional Weather Roundup
Issued by NWS

Home | Current Version | Previous Version | Text Only | Print | Product List | Glossary Off
Versions: 1 2 3 4 5 6 7 8 9 10 11 12 13 14 15 16 17 18 19 20 21 22 23 24 25 26 27 28 29 30 31 32 33 34 35 36 37 38 39 40 41 42 43 44 45 46 47 48 49 50

000
ASUS43 KDTX 270810
RWRMI
MICHIGAN HOURLY REGIONAL WEATHER ROUNDUP
NATIONAL WEATHER SERVICE DETROIT/PONTIAC MI
400 AM EDT SAT AUG 27 2016

NOTE: "FAIR" INDICATES FEW OR NO CLOUDS BELOW 12,000 FEET WITH NO
SIGNIFICANT WEATHER AND/OR OBSTRUCTION TO VISIBILITY.

MIZ047>049-052>055-059>063-066>070-074>076-081>083-270900-
SOUTHEAST LOWER MICHIGAN

CITY           SKY/WX    TMP DP  RH WIND       PRES   REMARKS
ADRIAN         PTCLDY    68  67  96 NE3       30.15S
ALMA           CLOUDY    60  60  98 W5        30.15F
ANN ARBOR      CLOUDY    67  64  90 CALM      30.15S
BAD AXE        PTCLDY    59  59 100 CALM      30.17S
CARO           CLOUDY    60  59  98 CALM      30.15F
DETROIT CITY   PTCLDY    71  69  93 CALM      30.15S
DETROIT        CLOUDY    71  65  81 N3        30.15F
FLINT          CLOUDY    66  62  87 CALM      30.16R
GROSSE ILE     MOCLDY    71  67  87 CALM      30.13F
HILLSDALE      CLOUDY    67  64  89 E5        30.15F
HOWELL         MOCLDY    65  64  97 CALM      30.16S

CITY           SKY/WX    TMP DP  RH WIND       PRES   REMARKS
JACKSON        CLOUDY    67  65  93 NE3       30.15S
LAMBERTVILLE   MOCLDY    68  66  93 CALM      30.15S
LANSING        CLOUDY    64  59  83 CALM      30.15F
LAPEER         FAIR      60  60  97 CALM      30.17S
MASON          CLOUDY    64  62  93 CALM      30.16S
MONROE         MOCLDY    67  67 100 CALM      30.14S
MT. CLEMENS    MOCLDY    67  63  86 N3        30.14R
PONTIAC        PTCLDY    66  63  90 CALM      30.16R
PORT HURON       N/A     61  61 100 CALM      30.16S FOG
TRI CITIES     MOCLDY    62  59  90 N3        30.16S
MIDLAND        FAIR      58  57  97 CALM      30.15S
TROY           PTCLDY    72  62  71 NE3       30.17S
SAGINAW HB     CLOUDY    63  59  88 CALM      30.14F
$$
MIZ043>046-050>051-056>058-064>065-071>073-077>080-270900-
SOUTHWEST LOWER MICHIGAN

CITY           SKY/WX    TMP DP  RH WIND       PRES   REMARKS
BATTLE CREEK   CLOUDY    67  60  78 E6        30.15S
BENTON HARBOR  CLOUDY    67  61  81 E5        30.10F
BIG RAPIDS     CLOUDY    59  58  95 CALM      30.15F
COLDWATER      CLOUDY    69  66  92 CALM      30.14F
FREMONT        MOCLDY    63  56  79 E9        30.13F
HOLLAND        CLOUDY    64  60  87 E6        30.13F
GRAND RAPIDS   CLOUDY    64  58  80 E5        30.15S
IONIA          MOCLDY    62  58  86 E3        30.14F
KALAMAZOO      MOCLDY    68  60  75 CALM      30.14F
LUDINGTON      CLOUDY    59  57  94 CALM      30.13F
MARSHALL       CLOUDY    66  64  94 CALM      30.14S
MOUNT PLEASANT CLOUDY    59  58  96 CALM      30.15F
MUSKEGON       MOCLDY    64  57  78 E8        30.13F
SOUTH HAVEN    MOCLDY    66  63  91 E3        30.12S
$$
MIZ016>042-270900-
NORTHERN LOWER MICHIGAN

CITY           SKY/WX    TMP DP  RH WIND       PRES   REMARKS
ALPENA         CLOUDY    59  56  89 CALM      30.19R
BEAVER ISLAND  CLOUDY    62  60  93 CALM      30.17R
BELLAIRE       CLOUDY    58  56  96 CALM      30.17S
CADILLAC       CLOUDY    58  55  88 E3        30.17F
CHARLEVOIX     PTCLDY    61  59  94 SE3       30.19S
FRANKFORT      PTCLDY    60  58  91 CALM      30.15S
GAYLORD        LGT RAIN  59  54  83 CALM      30.19S
GRAYLING       MOCLDY    56  55  95 CALM      30.19F
HARBOR SPRINGS CLOUDY    60  58  94 E5        30.17S
HOUGHTON LAKE  CLOUDY    58  55  90 NE6       30.18F
MANISTEE       CLOUDY    58  57  97 CALM      30.15F
OSCODA         PTCLDY    61  60  98 N5        30.17S
PELLSTON       PTCLDY    55  53  93 CALM      30.18S
ROGERS CITY    CLOUDY    56  55  93 CALM      30.19S
TRAVERSE CITY  CLOUDY    62  58  86 CALM      30.15F
$$
MIZ007>008-015-270900-
EASTERN UPPER MICHIGAN

CITY           SKY/WX    TMP DP  RH WIND       PRES   REMARKS
KINROSS        CLOUDY    57  53  86 CALM      30.18S
MACKINAC ISLAN CLOUDY    59  54  81 E6        30.17S
NEWBERRY       CLOUDY    57  55  95 CALM      30.17S
S. S. MARIE    CLOUDY    57  54  89 CALM      30.17F
$$
MIZ004>006-011>014-085-270900-
CENTRAL UPPER MICHIGAN

CITY           SKY/WX    TMP DP  RH WIND       PRES   REMARKS
MANISTIQUE     CLOUDY    58  56  93 CALM      30.15F
ESCANABA       CLOUDY    63  60  90 NE3       30.15R
MENOMINEE      LGT RAIN N/A N/A N/A CALM      30.14F
SAWYER-GWINN   CLOUDY    51  50  96 CALM      30.15F
$$
MIZ001>003-009>011-084-270900-
WESTERN UPPER MICHIGAN

CITY           SKY/WX    TMP DP  RH WIND       PRES   REMARKS
IRON MOUNTAIN  MOCLDY    57  54  89 CALM      30.15S
HOUGHTON       CLOUDY    50  48  93 CALM      30.14F
IRONWOOD       PTCLDY    51  50  96 CALM      30.15S
$$

ABBREVIATIONS USED IN REMARKS
   TC - TEMPERATURE IN CELSIUS
  WCI - WIND CHILL INDEX
   HX - HEAT INDEX
  VSB - VISIBILITY





USA.gov is the U.S. government's official web portal to all federal, state and local government web resources and services.